| time (UTC) | temp F | wind direction | speed MPH | gust MPH | rain 1hr in | rain 24hr in | rain mn in | humidity % | barometer mb |
| 20260505173041 | 50 | 49 | 0.0 | 6.0 | 0.00 | 0.00 | 0.00 | 40 | 1008.9 |
| 20260505171507 | 49 | 316 | 0.0 | 1.0 | 0.00 | 0.00 | 0.00 | 45 | 1008.8 |
| 20260505170008 | 49 | 327 | 0.0 | 2.0 | 0.00 | 0.00 | 0.00 | 44 | 1008.7 |
| 20260505164506 | 49 | 326 | 0.0 | 0.0 | 0.00 | 0.00 | 0.00 | 43 | 1008.6 |
| 20260505163004 | 49 | 317 | 0.0 | 1.0 | 0.00 | 0.00 | 0.00 | 45 | 1008.6 |
| 20260505161506 | 49 | 314 | 0.0 | 4.0 | 0.00 | 0.00 | 0.00 | 45 | 1008.6 |
| 20260505153108 | 51 | 263 | 4.0 | 10.0 | 0.00 | 0.00 | 0.00 | 36 | 1008.4 |
| 20260505151600 | 51 | 262 | 3.0 | 9.0 | 0.00 | 0.00 | 0.00 | 42 | 1008.4 |
| 20260505150120 | 52 | 320 | 1.0 | 6.0 | 0.00 | 0.00 | 0.00 | 41 | 1008.3 |
| 20260505124552 | 50 | 288 | 1.0 | 7.0 | 0.00 | 0.00 | 0.00 | 41 | 1008.0 |
| 20260505123053 | 50 | 276 | 3.0 | 10.0 | 0.00 | 0.00 | 0.00 | 41 | 1008.0 |
| 20260505121611 | 51 | 281 | 2.0 | 9.0 | 0.00 | 0.00 | 0.00 | 40 | 1007.9 |
| 20260505120040 | 50 | 262 | 3.0 | 8.0 | 0.00 | 0.00 | 0.00 | 42 | 1007.8 |
| 20260505114541 | 49 | 301 | 5.0 | 11.0 | 0.00 | 0.00 | 0.00 | 44 | 1007.8 |
| 20260505113046 | 49 | 264 | 4.0 | 9.0 | 0.00 | 0.00 | 0.00 | 44 | 1007.8 |
| 20260505111540 | 50 | 294 | 1.0 | 7.0 | 0.00 | 0.00 | 0.00 | 43 | 1007.8 |
| 20260505101540 | 49 | 270 | 4.0 | 9.0 | 0.00 | 0.00 | 0.00 | 49 | 1007.6 |
| 20260505100042 | 49 | 325 | 3.0 | 10.0 | 0.00 | 0.00 | 0.00 | 47 | 1007.5 |
| 20260505094533 | 48 | 273 | 2.0 | 9.0 | 0.00 | 0.00 | 0.00 | 50 | 1007.4 |
| 20260505093033 | 48 | 280 | 5.0 | 10.0 | 0.00 | 0.00 | 0.00 | 45 | 1007.4 |
| 20260505091536 | 48 | 270 | 1.0 | 9.0 | 0.00 | 0.00 | 0.00 | 48 | 1007.3 |
| 20260505090029 | 47 | 308 | 0.0 | 9.0 | 0.00 | 0.00 | 0.00 | 55 | 1007.3 |
| 20260505084528 | 47 | 271 | 2.0 | 7.0 | 0.00 | 0.00 | 0.00 | 58 | 1007.2 |
| 20260505083034 | 46 | 288 | 2.0 | 10.0 | 0.00 | 0.00 | 0.00 | 55 | 1007.1 |
| 20260505081529 | 46 | 278 | 0.0 | 7.0 | 0.00 | 0.00 | 0.00 | 57 | 1007.0 |
| 20260505080036 | 46 | 313 | 1.0 | 6.0 | 0.00 | 0.00 | 0.00 | 58 | 1006.9 |
| 20260505074523 | 45 | 289 | 1.0 | 5.0 | 0.00 | 0.00 | 0.00 | 60 | 1006.9 |
| 20260505073025 | 45 | 240 | 0.0 | 4.0 | 0.00 | 0.00 | 0.00 | 60 | 1006.8 |
| 20260505071532 | 45 | 293 | 0.0 | 4.0 | 0.00 | 0.00 | 0.00 | 64 | 1006.8 |
| 20260505070019 | 44 | 288 | 0.0 | 2.0 | 0.00 | 0.00 | 0.00 | 66 | 1006.6 |
| 20260505064517 | 44 | 319 | 0.0 | 2.0 | 0.00 | 0.00 | 0.00 | 65 | 1006.4 |
| 20260505063028 | 43 | 319 | 0.0 | 5.0 | 0.00 | 0.00 | 0.00 | 69 | 1006.4 |
| 20260505061517 | 43 | 321 | 0.0 | 4.0 | 0.00 | 0.02 | 0.00 | 74 | 1006.3 |
| 20260505060012 | 43 | 319 | 0.0 | 2.0 | 0.00 | 0.02 | 0.00 | 76 | 1006.2 |
| 20260505054511 | 43 | 294 | 0.0 | 6.0 | 0.00 | 0.02 | 0.00 | 78 | 1006.0 |
| 20260505053008 | 42 | 315 | 0.0 | 3.0 | 0.00 | 0.02 | 0.00 | 80 | 1006.0 |
| 20260505051507 | 42 | 326 | 0.0 | 9.0 | 0.00 | 0.02 | 0.00 | 80 | 1005.9 |
| 20260505041611 | 42 | 308 | 0.0 | 4.0 | 0.00 | 0.02 | 0.00 | 79 | 1005.4 |
| 20260505040104 | 43 | 308 | 0.0 | 1.0 | 0.00 | 0.02 | 0.00 | 80 | 1005.3 |
| 20260505034555 | 42 | 326 | 0.0 | 2.0 | 0.00 | 0.02 | 0.00 | 79 | 1005.0 |
| 20260505033054 | 43 | 315 | 0.0 | 1.0 | 0.00 | 0.02 | 0.00 | 81 | 1004.9 |
| 20260505031555 | 43 | 317 | 0.0 | 3.0 | 0.00 | 0.02 | 0.00 | 80 | 1004.6 |
| 20260505024551 | 44 | 305 | 1.0 | 5.0 | 0.00 | 0.02 | 0.00 | 77 | 1004.4 |
| 20260505023047 | 45 | 301 | 0.0 | 6.0 | 0.00 | 0.02 | 0.00 | 77 | 1004.2 |
| 20260505021551 | 46 | 323 | 3.0 | 8.0 | 0.00 | 0.02 | 0.00 | 75 | 1003.9 |
| 20260505020050 | 48 | 309 | 1.0 | 9.0 | 0.00 | 0.02 | 0.00 | 80 | 1003.7 |
| 20260505014535 | 48 | 273 | 2.0 | 8.0 | 0.00 | 0.02 | 0.00 | 81 | 1003.5 |
| 20260505013033 | 47 | 260 | 2.0 | 8.0 | 0.00 | 0.02 | 0.00 | 79 | 1003.3 |
| 20260505011534 | 47 | 238 | 0.0 | 5.0 | 0.00 | 0.02 | 0.00 | 78 | 1003.1 |
| 20260505010039 | 48 | 201 | 1.0 | 11.0 | 0.00 | 0.02 | 0.00 | 76 | 1003.0 |
| 20260505004528 | 48 | 205 | 2.0 | 12.0 | 0.00 | 0.02 | 0.00 | 74 | 1003.0 |
| 20260505003029 | 48 | 248 | 4.0 | 9.0 | 0.00 | 0.02 | 0.00 | 73 | 1002.9 |
| 20260505001528 | 48 | 194 | 2.0 | 12.0 | 0.00 | 0.02 | 0.00 | 71 | 1002.7 |
| 20260505000027 | 49 | 127 | 0.0 | 11.0 | 0.00 | 0.02 | 0.00 | 69 | 1002.6 |
| 20260504234524 | 49 | 240 | 4.0 | 11.0 | 0.00 | 0.02 | 0.00 | 66 | 1002.6 |
| 20260504233022 | 49 | 266 | 1.0 | 9.0 | 0.00 | 0.02 | 0.00 | 64 | 1002.6 |
| 20260504231554 | 49 | 212 | 2.0 | 10.0 | 0.00 | 0.02 | 0.00 | 62 | 1002.6 |
| 20260504230111 | 50 | 207 | 3.0 | 15.0 | 0.00 | 0.02 | 0.00 | 60 | 1002.7 |
| 20260504223020 | 50 | 194 | 4.0 | 11.0 | 0.00 | 0.02 | 0.00 | 56 | 1002.6 |
| 20260504221516 | 51 | 213 | 4.0 | 13.0 | 0.00 | 0.02 | 0.00 | 55 | 1002.7 |
| 20260504220014 | 51 | 174 | 2.0 | 9.0 | 0.00 | 0.02 | 0.00 | 54 | 1002.7 |
| 20260504214523 | 51 | 188 | 1.0 | 10.0 | 0.00 | 0.02 | 0.00 | 55 | 1002.7 |
| 20260504213011 | 51 | 206 | 0.0 | 7.0 | 0.00 | 0.02 | 0.00 | 55 | 1002.8 |
| 20260504211508 | 52 | 235 | 5.0 | 11.0 | 0.00 | 0.02 | 0.00 | 53 | 1002.9 |
| 20260504210011 | 52 | 217 | 1.0 | 10.0 | 0.00 | 0.02 | 0.00 | 53 | 1002.9 |
| 20260504204510 | 52 | 233 | 3.0 | 12.0 | 0.00 | 0.02 | 0.00 | 53 | 1003.0 |
| 20260504203006 | 52 | 243 | 4.0 | 10.0 | 0.00 | 0.02 | 0.00 | 52 | 1003.1 |
| 20260504201508 | 52 | 199 | 3.0 | 11.0 | 0.00 | 0.02 | 0.00 | 52 | 1003.2 |
| 20260504200010 | 53 | 210 | 3.0 | 11.0 | 0.00 | 0.02 | 0.00 | 52 | 1003.2 |
| 20260504194506 | 53 | 201 | 0.0 | 8.0 | 0.00 | 0.02 | 0.00 | 53 | 1003.0 |
| 20260504193006 | 53 | 169 | 0.0 | 7.0 | 0.00 | 0.02 | 0.00 | 53 | 1003.0 |
| 20260504191503 | 53 | 173 | 0.0 | 5.0 | 0.00 | 0.02 | 0.00 | 52 | 1003.0 |
| 20260504190002 | 54 | 203 | 1.0 | 5.0 | 0.00 | 0.02 | 0.00 | 51 | 1002.9 |
| 20260504184503 | 54 | 194 | 0.0 | 5.0 | 0.00 | 0.02 | 0.00 | 53 | 1002.8 |
| 20260504183002 | 56 | 195 | 0.0 | 5.0 | 0.00 | 0.02 | 0.00 | 54 | 1002.8 |
| 20260504181604 | 56 | 194 | 0.0 | 8.0 | 0.00 | 0.02 | 0.00 | 54 | 1002.8 |
| 20260504181502 | 56 | 221 | 1.0 | 8.0 | 0.00 | 0.02 | 0.00 | 54 | 1002.7 |
| 20260504180100 | 56 | 173 | 0.0 | 5.0 | 0.00 | 0.02 | 0.00 | 55 | 1002.8 |
| 20260504174559 | 57 | 221 | 0.0 | 3.0 | 0.00 | 0.02 | 0.00 | 57 | 1002.8 |